Weather History for Tahlequah, OK

Change the Weather History Date:

Thursday, November 14, 2013

  Actual Average (KMKO) Record (KMKO)
Temperature  
Mean Temperature 38 °F -  
Max Temperature 53 °F 59 °F 80 °F (1999)
Min Temperature 24 °F 39 °F 23 °F (2000)
Degree Days  
Heating Degree Days 26    
Moisture  
Dew Point 26 °F    
Average Humidity 61    
Maximum Humidity 93    
Minimum Humidity 33    
Precipitation  
Precipitation 0.01 in - - ()
Sea Level Pressure  
Sea Level Pressure 30.18 in    
Wind  
Wind Speed 3 mph (South)    
Max Wind Speed 13 mph    
Max Gust Speed 20 mph    
Visibility 10 miles    
Events Rain    
Averages and records for this station are not official NWS values.
T = Trace of Precipitation, MM = Missing Value Source: NWS Daily Summary

Daily Weather History Graph

Daily Weather History Graph

Search for Another Location

Airport:

Trip Planner

Search our weather history database for the weather conditions in past years. The results will help you decide how hot, cold, wet, or windy it might be!

Date:

Astronomy

Nov. 14, 2013 Rise Set
Actual Time 6:55 AM CST 5:12 PM CST
Civil Twilight 6:28 AM CST 5:40 PM CST
Nautical Twilight 5:57 AM CST 6:11 PM CST
Astronomical Twilight 5:27 AM CST 6:41 PM CST
Moon 3:30 PM CST (11/14) 3:56 AM CST (11/14)
Length of Visible Light 11h 11m
Length of Day
10h 17m
Waxing Gibbous, 92% of the Moon is Illuminated
Nov 14
Waxing Gibbous
Nov 17
Full
Nov 25
Last Quarter
Dec 2
New
Dec 9
First Quarter

Hourly Weather History & Observations

Time (CST) Temp. Windchill Dew Point Humidity Pressure Visibility Wind Dir Wind Speed Gust Speed Precip Events Conditions
12:15 AM 30.2 °F - 23.0 °F 75% 30.34 in 10.0 mi Calm Calm - N/A   Clear
12:35 AM 28.4 °F - 23.0 °F 80% 30.34 in 10.0 mi Calm Calm - N/A   Clear
12:55 AM 28.4 °F - 23.0 °F 80% 30.33 in 10.0 mi Calm Calm - N/A   Clear
1:15 AM 26.6 °F - 23.0 °F 86% 30.33 in 10.0 mi Calm Calm - N/A   Clear
1:35 AM 24.8 °F - 21.2 °F 86% 30.32 in 10.0 mi Calm Calm - N/A   Clear
1:55 AM 24.8 °F - 23.0 °F 93% 30.31 in 10.0 mi Calm Calm - N/A   Clear
2:15 AM 24.8 °F - 23.0 °F 93% 30.31 in 10.0 mi Calm Calm - N/A   Clear
2:35 AM 24.8 °F - 23.0 °F 93% 30.31 in 10.0 mi Calm Calm - N/A   Clear
2:55 AM 26.6 °F - 23.0 °F 86% 30.31 in 10.0 mi Calm Calm - N/A   Clear
3:15 AM 24.8 °F - 23.0 °F 93% 30.30 in 10.0 mi Calm Calm - N/A   Clear
3:35 AM 30.2 °F 26.7 °F 23.0 °F 75% 30.29 in 10.0 mi South 3.5 mph - N/A   Clear
3:55 AM 30.2 °F - 23.0 °F 75% 30.29 in 10.0 mi Calm Calm - N/A   Clear
4:15 AM 30.2 °F - 23.0 °F 75% 30.29 in 10.0 mi Calm Calm - N/A   Clear
4:35 AM 32.0 °F 28.7 °F 23.0 °F 69% 30.28 in 10.0 mi South 3.5 mph - N/A   Clear
4:55 AM 32.0 °F 27.5 °F 23.0 °F 69% 30.28 in 10.0 mi South 4.6 mph - N/A   Clear
5:15 AM 30.2 °F 26.7 °F 23.0 °F 75% 30.28 in 10.0 mi South 3.5 mph - N/A   Clear
5:35 AM 30.2 °F - 23.0 °F 75% 30.28 in 10.0 mi Calm Calm - N/A   Clear
5:55 AM 30.2 °F 26.7 °F 23.0 °F 75% 30.28 in 10.0 mi South 3.5 mph - N/A   Clear
6:15 AM 30.2 °F 25.4 °F 23.0 °F 75% 30.28 in 10.0 mi SSE 4.6 mph - N/A   Clear
6:35 AM 28.4 °F - 21.2 °F 74% 30.27 in 10.0 mi Calm Calm - N/A   Clear
6:55 AM 26.6 °F - 21.2 °F 80% 30.28 in 10.0 mi Calm Calm - N/A   Clear
7:15 AM 26.6 °F - 21.2 °F 80% 30.27 in 10.0 mi Calm Calm - N/A   Clear
7:35 AM 30.2 °F - 23.0 °F 75% 30.28 in 10.0 mi Calm Calm - N/A   Clear
7:55 AM 32.0 °F - 23.0 °F 69% 30.27 in 10.0 mi Calm Calm - N/A   Clear
8:15 AM 35.6 °F 31.7 °F 24.8 °F 65% 30.28 in 10.0 mi South 4.6 mph - N/A   Clear
8:35 AM 35.6 °F 29.9 °F 26.6 °F 70% 30.28 in 10.0 mi South 6.9 mph - N/A   Clear
8:55 AM 37.4 °F 31.4 °F 26.6 °F 65% 30.27 in 10.0 mi South 8.1 mph - N/A   Clear
9:15 AM 41.0 °F 35.2 °F 26.6 °F 57% 30.27 in 10.0 mi South 9.2 mph - N/A   Clear
9:35 AM 41.0 °F 35.2 °F 26.6 °F 57% 30.26 in 10.0 mi South 9.2 mph 17.3 mph N/A   Clear
9:55 AM 42.8 °F 38.0 °F 26.6 °F 53% 30.25 in 10.0 mi South 8.1 mph 18.4 mph N/A   Clear
10:15 AM 44.6 °F 39.7 °F 26.6 °F 49% 30.25 in 10.0 mi South 9.2 mph 19.6 mph N/A   Clear
10:35 AM 44.6 °F 39.2 °F 26.6 °F 49% 30.24 in 10.0 mi South 10.4 mph 18.4 mph N/A   Clear
10:55 AM 44.6 °F 38.4 °F 26.6 °F 49% 30.24 in 10.0 mi South 12.7 mph 17.3 mph N/A   Clear
11:15 AM 44.6 °F 39.7 °F 26.6 °F 49% 30.23 in 10.0 mi South 9.2 mph - N/A   Clear
11:35 AM 44.6 °F 38.8 °F 26.6 °F 49% 30.22 in 10.0 mi South 11.5 mph 16.1 mph N/A   Clear
11:55 AM 46.4 °F 41.9 °F 28.4 °F 50% 30.20 in 10.0 mi SSE 9.2 mph - N/A   Clear
12:15 PM 48.2 °F - 28.4 °F 46% 30.19 in 10.0 mi South 11.5 mph 19.6 mph N/A   Clear
12:35 PM 48.2 °F - 28.4 °F 46% 30.17 in 10.0 mi South 11.5 mph - N/A   Clear
12:55 PM 50.0 °F - 28.4 °F 43% 30.15 in 10.0 mi South 9.2 mph 16.1 mph N/A   Clear
1:15 PM 50.0 °F - 26.6 °F 40% 30.14 in 10.0 mi South 12.7 mph 18.4 mph N/A   Clear
1:35 PM 50.0 °F - 28.4 °F 43% 30.13 in 10.0 mi South 9.2 mph - N/A   Clear
1:55 PM 50.0 °F - 26.6 °F 40% 30.12 in 10.0 mi South 5.8 mph - N/A   Clear
2:15 PM 50.0 °F - 26.6 °F 40% 30.12 in 10.0 mi South 10.4 mph - N/A   Clear
2:35 PM 51.8 °F - 26.6 °F 38% 30.11 in 10.0 mi SSE 11.5 mph - N/A   Clear
2:55 PM 51.8 °F - 26.6 °F 38% 30.11 in 10.0 mi South 12.7 mph 16.1 mph N/A   Clear
3:15 PM 51.8 °F - 26.6 °F 38% 30.09 in 10.0 mi South 5.8 mph 16.1 mph N/A   Clear
3:35 PM 53.6 °F - 24.8 °F 33% 30.09 in 10.0 mi South 12.7 mph 17.3 mph N/A   Clear
3:55 PM 53.6 °F - 26.6 °F 35% 30.08 in 10.0 mi South 10.4 mph - N/A   Clear
4:15 PM 51.8 °F - 23.0 °F 33% 30.08 in 10.0 mi South 9.2 mph - N/A   Clear
4:35 PM 50.0 °F - 24.8 °F 37% 30.07 in 10.0 mi SSE 9.2 mph 16.1 mph N/A   Clear
4:55 PM 50.0 °F - 24.8 °F 37% 30.07 in 10.0 mi SSE 8.1 mph - N/A   Clear
5:15 PM 50.0 °F - 24.8 °F 37% 30.07 in 10.0 mi South 5.8 mph - N/A   Clear
5:35 PM 48.2 °F - 23.0 °F 37% 30.07 in 10.0 mi South 4.6 mph - N/A   Clear
5:55 PM 46.4 °F 43.5 °F 23.0 °F 40% 30.07 in 10.0 mi South 5.8 mph - N/A   Clear
6:15 PM 44.6 °F 42.2 °F 24.8 °F 46% 30.07 in 10.0 mi South 4.6 mph - N/A   Clear
6:35 PM 46.4 °F 42.4 °F 24.8 °F 43% 30.07 in 10.0 mi SSE 8.1 mph - N/A   Clear
6:55 PM 46.4 °F 42.4 °F 26.6 °F 46% 30.07 in 10.0 mi SSE 8.1 mph - N/A   Clear
7:15 PM 48.2 °F - 26.6 °F 43% 30.06 in 10.0 mi SSE 8.1 mph - N/A   Clear
7:35 PM 48.2 °F - 26.6 °F 43% 30.06 in 10.0 mi SSE 6.9 mph - N/A   Clear
7:55 PM 48.2 °F - 26.6 °F 43% 30.06 in 10.0 mi SSE 9.2 mph - N/A   Clear
8:15 PM 48.2 °F - 26.6 °F 43% 30.05 in 10.0 mi SE 4.6 mph - N/A   Clear
8:35 PM 48.2 °F - 26.6 °F 43% 30.05 in 10.0 mi SSE 6.9 mph - N/A   Clear
8:55 PM 44.6 °F 41.4 °F 32.0 °F 61% 30.06 in 7.0 mi SSE 5.8 mph - N/A   Mostly Cloudy
9:15 PM 42.8 °F - 33.8 °F 70% 30.07 in 5.0 mi Calm Calm - 0.01 in   Haze
9:35 PM 42.8 °F - 33.8 °F 70% 30.07 in 10.0 mi Calm Calm - 0.01 in Rain Rain
9:55 PM 42.8 °F - 37.4 °F 81% 30.07 in 10.0 mi Calm Calm - 0.01 in   Clear
10:15 PM 41.0 °F - 37.4 °F 87% 30.06 in 10.0 mi Calm Calm - N/A   Clear
10:35 PM 41.0 °F - 35.6 °F 81% 30.06 in 10.0 mi Calm Calm - N/A   Scattered Clouds
10:55 PM 41.0 °F - 35.6 °F 81% 30.06 in 10.0 mi Calm Calm - N/A   Overcast
11:15 PM 41.0 °F - 37.4 °F 87% 30.05 in 10.0 mi Calm Calm - N/A   Overcast
11:35 PM 42.8 °F - 35.6 °F 76% 30.05 in 10.0 mi Calm Calm - N/A   Overcast
11:55 PM 42.8 °F - 37.4 °F 81% 30.05 in 10.0 mi Calm Calm - N/A   Mostly Cloudy